Location: Newark
(49.8969°N, 3.3422°E)
Time: 10:42:13
(UTC+00:00)

Explorer 7 - Pass Details

Date: 27 January 2020
Orbit: 485 x 679 km, 50.3° (Epoch: 20 February)

Event Time Altitude Azimuth Distance (km) Brightness Sun altitude
Rises 02:00:52 0° 282° (WNW) 2,552 - -50.4°
Reaches altitude 10° 02:03:01 10° 281° (W) 1,676 - -50.2°
Maximum altitude 02:06:46 72° 197° (SSW) 524 - -49.7°
Drops below altitude 10° 02:10:39 10° 112° (ESE) 1,728 - -49.2°
Sets 02:12:54 0° 111° (ESE) 2,640 - -48.9°
